Regional Weather Roundup
Issued by NWS Charleston, SC

Current Version | Previous Version | Text Only | Print | Product List | Glossary Off
Versions: 1 2 3 4 5 6 7 8 9 10 11 12 13 14 15 16 17 18 19 20 21 22 23 24 25 26 27 28 29 30 31 32 33 34 35 36 37 38 39 40 41 42 43 44 45 46 47 48 49 50

000
ASUS42 KCHS 281528
RWRCHS

REGIONAL WEATHER ROUNDUP
NATIONAL WEATHER SERVICE CHARLESTON SC
1100 AM EDT THU JUL 28 2016

NOTE: "FAIR" INDICATES FEW OR NO CLOUDS BELOW 12,000 FEET WITH NO
SIGNIFICANT WEATHER AND/OR OBSTRUCTIONS TO VISIBILITY.

NOT ALL STATIONS ARE QUALITY CONTROLLED. USE DATA WITH CAUTION...
ESPECIALLY DEWPOINT OBSERVATIONS.

SCZ027-030-031-034>040-042>050-281600-
...SOUTHEAST SOUTH CAROLINA...

CITY           SKY/WX    TMP DP  RH WIND       PRES   REMARKS
N CHARLESTON   SUNNY     92  73  53 NW9       30.01F HX 100
WATERFRONT PRK   N/A     88  74  63 NW7       30.00F HX  97
MOUNT PLEASANT FAIR      91  73  55 W7        30.01F HX 100
JOHNS ISLAND   FAIR      93  75  55 NW5G12    30.02S HX 104
PINOPOLIS        N/A     86  73  66 NW5       29.94F HX  93
MONCKS CORNER  FAIR      88  66  48 NW6       30.00F HX  90
SUMMERVILLE    FAIR      90  72  55 W9        30.02F HX  96
BEAUFORT MCAS  SUNNY     92  72  51 NW8       30.03S HX  99
BEAUFORT ARPT  FAIR      91  73  55 W9        30.02F HX 100
HILTON HEAD IS NOT AVBL
WALTERBORO     SUNNY     91  70  49 W10       30.03S HX  97
ALLENDALE      FAIR      88  73  62 VRB7      30.02S HX  96

...SOUTHERN MIDLANDS AND PEE DEE...

CITY           SKY/WX    TMP DP  RH WIND       PRES   REMARKS
GEORGETOWN     NOT AVBL
KINGSTREE      FAIR      90  68  48 W8        29.99F HX  93
ORANGEBURG     SUNNY     89  71  55 W9        30.01F HX  95
BARNWELL       NOT AVBL
AIKEN          FAIR      88  68  51 W10G18    30.05S HX  91
MANNING        FAIR      90  68  48 W9        30.00F HX  93
COLUMBIA       SUNNY     93  68  43 W14       29.98F HX  97
SUMTER         NOT AVBL
FLORENCE       SUNNY     90  70  51 W12       29.98F HX  95
MYRTLE BEACH   SUNNY     91  70  49 NW12      30.01S HX  97
N MYRTLE BEACH SUNNY     91  72  53 W7        29.98S HX  98

$$

GAZ063-065-086>088-099>101-113>116-118-119-134>141-150-281600-
...SOUTHEAST GEORGIA...

CITY           SKY/WX    TMP DP  RH WIND       PRES   REMARKS
SAVANNAH ARPT  SUNNY     90  72  55 W6        30.04S HX  97
HUNTER AAF     NOT AVBL
FORT STEWART   NOT AVBL
STATESBORO     SUNNY     90  74  59 W9        30.04S HX  99
SYLVANIA       NOT AVBL
CLAXTON        FAIR      91  74  57 W10       30.04F HX 100

...CSRA...CENTRAL AND FAR SOUTHEAST GEORGIA...

CITY           SKY/WX    TMP DP  RH WIND       PRES   REMARKS
THOMSON        NOT AVBL
AUGUSTA-BUSH   SUNNY     91  68  46 W14G23    30.00F HX  95
AUGUSTA-DANIEL SUNNY     90  69  50 VRB7G17   30.02F HX  94
SWAINSBORO     FAIR      90  70  51 W8        30.05S HX  95
VIDALIA        SUNNY     90  68  48 W10G17    30.05F HX  93
EASTMAN        FAIR      90  60  35 SW9       30.08S
HAZLEHURST     FAIR      91  72  53 W7        30.05S HX  98
ALMA           SUNNY     89  71  55 VRB6      30.06F HX  95
WAYCROSS       SUNNY     95  74  50 W8        30.06F HX 105
JESUP          FAIR      91  77  62 W8        30.06S HX 105
BAXLEY         FAIR      90  75  62 W5        30.05F HX 100
BRUNSWICK      SUNNY     91  77  62 SW5       30.06S HX 105
SAINT SIMONS   SUNNY     90  72  55 W5        30.05F HX  97

$$

SCZ027-028-034-036>038-045-046-048>050-GAZ119-141-281600-
...LAKE AND SUPPLEMENTAL COASTAL OBSERVATIONS...

STATION/POSITION TIME  TEMP    WIND        PRES    WAVE   SWELL
                       AIR SEA DIR/SP/G            HT/PER HT/PER/DIR
                 (UTC) (F)     (DEG/KT/KT) (MB)    (FT/S) (FT/S/D)
WINYAH BAY       1400   87     300/  9     1015.0S
LAKE MURRAY      1500   86     250/ 13/ 16 1014.9F
ACE BASIN NERRS  1400   89     310/  3     1017.0S
FORT PULASKI     1500   88 87  270/  8/ 11 1017.5S
SAPELO ISLAND    1500   90     280/  6     1018.0S

$$

ANZ835-935-AMZ111-154-330-350-352-354-370-450-454-472-281600-
...C-MAN AND BUOY OBSERVATIONS...

STATION/POSITION TIME  TEMP    WIND        PRES    WAVE   SWELL
                       AIR SEA DIR/SP/G            HT/PER HT/PER/DIR
                 (UTC) (F)     (DEG/KT/KT) (MB)    (FT/S) (FT/S/D)
BUOY 41004       1450   85 86  260/ 12/ 12 1016.2R   4/ 6   3/230/ 6
BUOY 41008       1450   85 87  310/  6/  8 1017.7R   2/ 8   2/110/ 8
FOLLY BEACH CMAN 1500   90     280/  7/  9 1016.6F
CAPERS NEARSHORE 1508   87 84  280/  6/  8 1016.3F
FRIPP NEARSHORE  1508   87 87  280/  6/  8 1016.4S


STATION/POSITION TIME  TEMP    WIND        PRES    WAVE   SWELL
                       AIR SEA DIR/SP/G            HT/PER HT/PER/DIR
                 (UTC) (F)     (DEG/KT/KT) (MB)    (FT/S) (FT/S/D)
5E ST. MARYS GA  1501      86                N/A     1/ 4
FRYING PAN BUOY  1500   85 85  260/ 14/ 16 1015.3S
BUOY 41025       1450   85 84  240/ 12/ 14 1014.0F   2/ 6   2/170/ 7
CAPE LOOKOUT NC  1500   85     240/ 10/ 13 1013.8F
BUOY 41002       1450   84 85  270/  8/ 16 1016.9F   3/ 5   3/260/ 5
BUOY 41010       1420   85 86  240/  8/ 10 1018.8R
ST AUGUSTINE FL  1500   84 85   30/  8/  8 1019.4R


$$



USA.gov is the U.S. government's official web portal to all federal, state and local government web resources and services.